| Date | Time | Temp. (oF) | Dew Point (oF) | Rel. Hum. (%) | Press. (in.) | Wind Dir. | Wind Speed (mph) | Hourly Rainfall (in.) |
|
|---|---|---|---|---|---|---|---|---|---|
| 1 | 11/20 | 00:00 | 56 | 52 | 89 | 29.93 | W | 3 | 0.00 |
| 2 | 11/19 | 23:00 | 59 | 55 | 88 | 29.92 | WSW | 0 | 0.00 |
| 3 | 11/19 | 22:00 | 60 | 56 | 88 | 29.91 | SW | 0 | 0.00 |
| 4 | 11/19 | 21:00 | 60 | 56 | 88 | 29.90 | SW | 0 | 0.00 |
| 5 | 11/19 | 20:00 | 60 | 56 | 88 | 29.89 | SW | 0 | 0.00 |
| 6 | 11/19 | 19:00 | 61 | 57 | 88 | 29.88 | SW | 0 | 0.00 |
| 7 | 11/19 | 18:00 | 61 | 57 | 88 | 29.87 | SW | 0 | 0.04 |
| 8 | 11/19 | 17:00 | 62 | 58 | 88 | 29.87 | SW | 2 | 0.06 |
| 9 | 11/19 | 16:00 | 62 | 58 | 88 | 29.87 | SW | 6 | 0.02 |
| 10 | 11/19 | 15:00 | 62 | 58 | 88 | 29.87 | SW | 4 | 0.07 |
| 11 | 11/19 | 14:00 | 62 | 58 | 88 | 29.89 | SSW | 3 | 0.01 |
| 12 | 11/19 | 13:00 | 62 | 58 | 88 | 29.92 | SW | 8 | 0.01 |
| 13 | 11/19 | 12:00 | 61 | 57 | 88 | 29.94 | SW | 9 | 0.04 |
| 14 | 11/19 | 11:00 | 60 | 56 | 88 | 29.97 | SSW | 7 | 0.01 |
| 15 | 11/19 | 10:00 | 59 | 55 | 87 | 29.99 | SSW | 9 | 0.00 |
| 16 | 11/19 | 09:00 | 60 | 54 | 81 | 30.02 | SSW | 7 | 0.00 |
| 17 | 11/19 | 08:00 | 59 | 54 | 84 | 30.02 | S | 3 | 0.00 |
| 18 | 11/19 | 07:00 | 59 | 54 | 85 | 30.03 | S | 11 | 0.00 |
| 19 | 11/19 | 06:00 | 60 | 53 | 79 | 30.06 | S | 4 | 0.00 |
| 20 | 11/19 | 05:00 | 59 | 52 | 79 | 30.08 | S | 4 | 0.00 |
| 21 | 11/19 | 04:00 | 59 | 51 | 77 | 30.11 | SSE | 2 | 0.00 |
| 22 | 11/19 | 03:00 | 59 | 51 | 76 | 30.13 | S | 1 | 0.00 |
| 23 | 11/19 | 02:00 | 58 | 50 | 77 | 30.13 | S | 3 | 0.00 |
| 24 | 11/19 | 01:00 | 59 | 51 | 75 | 30.14 | S | 4 | 0.00 |